TimeEDT,TemperatureF,Dew PointF,Humidity,Sea Level PressureIn,VisibilityMPH,Wind Direction,Wind SpeedMPH,Gust SpeedMPH,PrecipitationIn,Events,Conditions,WindDirDegrees,DateUTC
12:15 AM,49.8,48.4,95,30.20,10.0,Calm,Calm,-,N/A,,Clear,0,2013-09-19 04:15:00
12:35 AM,49.3,48.2,96,30.19,10.0,Calm,Calm,-,N/A,,Clear,0,2013-09-19 04:35:00
12:55 AM,49.1,47.8,95,30.20,10.0,Calm,Calm,-,N/A,,Clear,0,2013-09-19 04:55:00
1:15 AM,48.7,47.7,96,30.19,10.0,Calm,Calm,-,N/A,,Clear,0,2013-09-19 05:15:00
1:35 AM,48.4,47.3,96,30.19,10.0,Calm,Calm,-,N/A,,Clear,0,2013-09-19 05:35:00
1:55 AM,48.4,47.3,96,30.19,10.0,Calm,Calm,-,N/A,,Clear,0,2013-09-19 05:55:00
2:15 AM,48.9,47.8,96,30.19,10.0,Calm,Calm,-,N/A,,Clear,0,2013-09-19 06:15:00
2:35 AM,48.2,46.9,95,30.19,7.0,Calm,Calm,-,N/A,,Clear,0,2013-09-19 06:35:00
2:55 AM,47.3,46.4,97,30.19,10.0,Calm,Calm,-,N/A,,Clear,0,2013-09-19 06:55:00
3:15 AM,47.5,46.4,96,30.18,10.0,Calm,Calm,-,N/A,,Clear,0,2013-09-19 07:15:00
3:35 AM,47.3,46.4,97,30.18,10.0,Calm,Calm,-,N/A,,Clear,0,2013-09-19 07:35:00
3:55 AM,47.8,46.9,97,30.18,10.0,Calm,Calm,-,N/A,,Clear,0,2013-09-19 07:55:00
4:15 AM,47.3,46.4,97,30.18,10.0,Calm,Calm,-,N/A,,Clear,0,2013-09-19 08:15:00
4:35 AM,46.9,46.0,97,30.18,10.0,Calm,Calm,-,N/A,,Clear,0,2013-09-19 08:35:00
4:55 AM,46.6,45.7,97,30.18,10.0,Calm,Calm,-,N/A,,Scattered Clouds,0,2013-09-19 08:55:00
5:15 AM,47.7,47.1,98,30.18,10.0,Calm,Calm,-,N/A,,Overcast,0,2013-09-19 09:15:00
5:35 AM,48.4,47.7,97,30.18,10.0,Calm,Calm,-,N/A,,Overcast,0,2013-09-19 09:35:00
5:55 AM,49.1,48.2,97,30.18,10.0,Calm,Calm,-,N/A,,Overcast,0,2013-09-19 09:55:00
6:15 AM,49.3,48.4,97,30.18,10.0,Calm,Calm,-,N/A,,Overcast,0,2013-09-19 10:15:00
6:35 AM,49.6,48.7,97,30.18,10.0,Calm,Calm,-,N/A,,Overcast,0,2013-09-19 10:35:00
6:55 AM,49.6,48.7,97,30.18,10.0,Calm,Calm,-,N/A,,Overcast,0,2013-09-19 10:55:00
7:15 AM,49.8,48.9,97,30.19,10.0,Calm,Calm,-,N/A,,Overcast,0,2013-09-19 11:15:00
7:35 AM,50.0,49.1,97,30.19,10.0,Calm,Calm,-,N/A,,Overcast,0,2013-09-19 11:35:00
7:55 AM,50.9,50.0,97,30.19,10.0,Calm,Calm,-,N/A,,Overcast,0,2013-09-19 11:55:00
8:15 AM,52.2,51.1,96,30.19,10.0,Calm,Calm,-,N/A,,Mostly Cloudy,0,2013-09-19 12:15:00
8:35 AM,52.9,51.3,94,30.19,10.0,Calm,Calm,-,N/A,,Scattered Clouds,0,2013-09-19 12:35:00
8:55 AM,55.0,52.2,90,30.19,10.0,Calm,Calm,-,N/A,,Clear,0,2013-09-19 12:55:00
9:15 AM,58.5,53.4,83,30.19,10.0,Calm,Calm,-,N/A,,Scattered Clouds,0,2013-09-19 13:15:00
9:35 AM,61.5,54.3,77,30.19,10.0,Calm,Calm,-,N/A,,Overcast,0,2013-09-19 13:35:00
9:55 AM,63.5,55.4,75,30.20,10.0,Calm,Calm,-,N/A,,Mostly Cloudy,0,2013-09-19 13:55:00
10:15 AM,64.6,55.9,74,30.20,10.0,Calm,Calm,-,N/A,,Overcast,0,2013-09-19 14:15:00
10:35 AM,65.7,56.3,72,30.20,10.0,Calm,Calm,-,N/A,,Mostly Cloudy,0,2013-09-19 14:35:00
10:55 AM,68.0,56.8,67,30.20,10.0,Calm,Calm,-,N/A,,Overcast,0,2013-09-19 14:55:00
11:15 AM,68.2,56.5,66,30.20,10.0,Calm,Calm,-,N/A,,Overcast,0,2013-09-19 15:15:00
11:35 AM,69.8,55.9,61,30.20,10.0,Calm,Calm,-,N/A,,Overcast,0,2013-09-19 15:35:00
11:55 AM,70.3,55.8,60,30.20,10.0,Calm,Calm,-,N/A,,Overcast,0,2013-09-19 15:55:00
12:15 PM,71.8,54.7,55,30.19,10.0,Calm,Calm,-,N/A,,Overcast,0,2013-09-19 16:15:00
12:35 PM,72.0,53.4,52,30.19,10.0,Calm,Calm,-,N/A,,Overcast,0,2013-09-19 16:35:00
12:55 PM,73.2,51.1,46,30.18,10.0,Calm,Calm,-,N/A,,Mostly Cloudy,0,2013-09-19 16:55:00
1:15 PM,73.9,52.5,47,30.17,10.0,WSW,3.5,-,N/A,,Scattered Clouds,250,2013-09-19 17:15:00
1:35 PM,74.3,53.6,48,30.16,10.0,Calm,Calm,-,N/A,,Mostly Cloudy,0,2013-09-19 17:35:00
1:55 PM,73.9,54.1,50,30.15,10.0,SSW,3.5,-,N/A,,Mostly Cloudy,200,2013-09-19 17:55:00
2:15 PM,74.8,54.1,48,30.15,10.0,Calm,Calm,-,N/A,,Overcast,0,2013-09-19 18:15:00
2:35 PM,75.2,54.5,48,30.14,10.0,Calm,Calm,-,N/A,,Mostly Cloudy,0,2013-09-19 18:35:00
2:55 PM,76.1,55.4,49,30.13,10.0,WNW,4.6,-,N/A,,Mostly Cloudy,290,2013-09-19 18:55:00
3:15 PM,75.4,55.6,50,30.12,7.0,Calm,Calm,-,N/A,,Mostly Cloudy,0,2013-09-19 19:15:00
3:35 PM,76.1,55.6,49,30.12,10.0,WSW,3.5,-,N/A,,Scattered Clouds,240,2013-09-19 19:35:00
3:55 PM,76.1,55.8,49,30.11,10.0,Calm,Calm,-,N/A,,Mostly Cloudy,0,2013-09-19 19:55:00
4:15 PM,76.5,56.3,50,30.11,10.0,Calm,Calm,-,N/A,,Mostly Cloudy,0,2013-09-19 20:15:00
4:35 PM,76.6,56.1,49,30.11,7.0,Calm,Calm,-,N/A,,Scattered Clouds,0,2013-09-19 20:35:00
4:55 PM,77.0,55.9,48,30.11,10.0,Calm,Calm,-,N/A,,Scattered Clouds,0,2013-09-19 20:55:00
5:15 PM,77.0,56.3,49,30.10,10.0,SSW,3.5,-,N/A,,Clear,200,2013-09-19 21:15:00
5:35 PM,77.4,55.6,47,30.11,10.0,Calm,Calm,-,N/A,,Mostly Cloudy,0,2013-09-19 21:35:00
5:55 PM,76.3,56.3,50,30.10,10.0,Calm,Calm,-,N/A,,Overcast,0,2013-09-19 21:55:00
6:15 PM,76.6,55.8,48,30.10,10.0,Calm,Calm,-,N/A,,Mostly Cloudy,0,2013-09-19 22:15:00
6:35 PM,75.7,56.5,51,30.11,10.0,Calm,Calm,-,N/A,,Mostly Cloudy,0,2013-09-19 22:35:00
6:55 PM,72.1,61.5,69,30.11,10.0,Calm,Calm,-,N/A,,Overcast,0,2013-09-19 22:55:00
7:15 PM,70.9,61.2,71,30.11,10.0,Calm,Calm,-,N/A,,Overcast,0,2013-09-19 23:15:00
7:35 PM,69.8,62.8,78,30.11,10.0,Calm,Calm,-,N/A,,Overcast,0,2013-09-19 23:35:00
7:55 PM,68.4,62.8,82,30.11,10.0,Calm,Calm,-,N/A,,Overcast,0,2013-09-19 23:55:00
8:15 PM,68.0,62.6,83,30.10,10.0,Calm,Calm,-,N/A,,Overcast,0,2013-09-20 00:15:00
8:35 PM,68.0,62.8,83,30.11,10.0,Calm,Calm,-,N/A,,Overcast,0,2013-09-20 00:35:00
8:55 PM,67.3,62.6,85,30.11,10.0,Calm,Calm,-,N/A,,Overcast,0,2013-09-20 00:55:00
9:15 PM,66.2,61.3,84,30.11,10.0,Calm,Calm,-,N/A,,Mostly Cloudy,0,2013-09-20 01:15:00
9:35 PM,64.9,60.4,85,30.11,10.0,Calm,Calm,-,N/A,,Mostly Cloudy,0,2013-09-20 01:35:00
9:55 PM,63.3,60.1,89,30.10,10.0,Calm,Calm,-,N/A,,Scattered Clouds,0,2013-09-20 01:55:00
10:15 PM,62.1,59.5,91,30.11,10.0,Calm,Calm,-,N/A,,Clear,0,2013-09-20 02:15:00
10:35 PM,61.0,59.2,94,30.11,10.0,Calm,Calm,-,N/A,,Mostly Cloudy,0,2013-09-20 02:35:00
10:55 PM,60.6,58.6,93,30.10,10.0,Calm,Calm,-,N/A,,Overcast,0,2013-09-20 02:55:00
11:15 PM,60.8,59.0,94,30.09,10.0,Calm,Calm,-,N/A,,Overcast,0,2013-09-20 03:15:00
11:35 PM,61.5,59.4,93,30.10,10.0,Calm,Calm,-,N/A,,Overcast,0,2013-09-20 03:35:00
11:55 PM,60.8,59.0,94,30.09,10.0,Calm,Calm,-,N/A,,Overcast,0,2013-09-20 03:55:00